[[{"header":{"parameterUnit":"m.s-1","parameterCategory":1,"la1":30.2991,"la2":30.254,"lo1":-89.0895,"lo2":-89.0444,"dy":0.0017,"dx":0.0017,"nx":28,"ny":28,"refTime":"2024-07-17T03:00:00:Z","depth":0,"parameterNumber":2,"parameterNumberName":"U-component_of_WINDS"},"data":[0,0,0,0,0,0,0,0,0,0,0,0,0,0,0,0,0,0,0,0,0,0,0,0,0,0,0,0,0,0,0,0,0,0,0,0,0,0,0,0,0,0,0,0,0,0,0,0,0,0,0,0,0,0,0,0,0,0,1.5992,1.5993,0,1.6077,1.6078,1.6079,1.6109,1.6108,1.6108,1.6108,1.6199,1.6202,1.6205,0,0,0,0,0,0,0,0,0,0,0,0,0,1.5861,1.5863,1.5992,1.5993,1.5994,1.6077,1.6078,1.6079,1.6109,1.6108,1.6108,1.6108,1.6198,1.6202,1.6205,0,0,0,0,0,0,0,0,0,0,0,0,0,1.5929,1.5864,1.5992,1.6019,1.6022,1.6077,1.6078,1.6079,1.6109,1.6108,1.6108,1.6107,1.6197,1.6201,1.6205,1.624,0,0,1.6218,1.622,0,0,0,0,0,0,0,0,1.5925,1.5934,1.6014,1.6017,1.6021,1.6082,1.6065,1.6134,1.6109,1.6076,1.6108,1.6107,1.6161,1.6168,1.6185,1.6245,1.6249,1.6218,1.6221,1.6222,1.6224,0,0,0,0,0,0,0,1.5921,1.5931,1.6026,1.6015,1.6019,1.6028,1.6038,1.6078,1.612,1.6079,1.6081,1.6091,1.6163,1.6181,1.6187,1.625,1.6218,1.6222,1.6224,1.6226,1.6344,1.6344,0,0,0,0,0,0,1.5911,1.5926,1.6023,1.6028,1.5971,1.6031,1.6041,1.6063,1.612,1.6128,1.6091,1.6092,1.6174,1.6183,1.6191,1.6236,1.6222,1.6226,1.6229,1.6343,1.6344,1.6345,0,0,0,0,0,0,1.5908,1.5919,1.602,1.5978,1.5992,1.6034,1.6058,1.6065,1.6083,1.6129,1.6137,1.6102,1.6174,1.6185,1.6228,1.6239,1.6228,1.6232,1.6342,1.6343,1.6344,1.6326,0,0,0,0,0,0,1.5904,1.5918,1.593,1.5978,1.5994,1.6054,1.6058,1.6067,1.6089,1.6091,1.6141,1.6149,1.6175,1.6221,1.6232,1.6245,1.6235,1.6341,1.6343,1.6344,1.6326,1.6326,1.6327,0,0,0,0,0,1.5899,1.5923,1.5931,1.5942,1.601,1.6054,1.6063,1.6091,1.609,1.6104,1.6134,1.6147,1.6236,1.6225,1.6237,1.6252,1.6341,1.6342,1.6344,1.6326,1.6326,1.6327,0,0,0,0,0,0,1.5877,1.5929,1.5939,1.5978,1.6011,1.6059,1.6077,1.6091,1.6126,1.6126,1.6161,1.6172,1.6212,1.6237,1.6223,1.6289,1.629,1.6294,1.6272,1.6273,1.6273,1.6266,1.6238,0,0,0,0,0,1.5876,1.5906,1.5951,1.5982,1.5998,1.6034,1.6055,1.6073,1.611,1.6124,1.6157,1.6193,1.6229,1.6252,1.6288,1.633,1.6342,1.6346,1.6346,1.6346,1.6349,1.6374,1.6376,1.635,1.635,1.635,0,0,1.5875,1.5908,1.5925,1.5978,1.6006,1.6038,1.6046,1.6079,1.6104,1.613,1.6172,1.6197,1.624,1.6282,1.6302,1.6304,1.6359,1.6348,1.6348,1.6351,1.6376,1.6378,1.638,1.6351,1.635,1.635,0,0,1.589,1.5918,1.5946,1.5974,1.6015,1.604,1.6047,1.6093,1.611,1.6152,1.6173,1.6203,1.6265,1.6294,1.6317,1.6344,1.6358,1.6355,1.6358,1.6381,1.6383,1.6385,1.6395,1.6398,1.6358,1.6358,1.6358,0,1.5885,1.5932,1.596,1.5992,1.6015,1.6039,1.6069,1.6095,1.6146,1.6162,1.6163,1.6241,1.6271,1.6321,1.6327,1.6345,1.6355,1.6349,1.638,1.6383,1.6385,1.6395,1.6399,1.6357,1.6358,1.6358,1.6358,0,1.5923,1.5956,1.5974,1.6022,1.6048,1.6078,1.6112,1.6135,1.6151,1.6176,1.622,1.6257,1.6301,1.6314,1.6331,1.6367,1.6366,1.6373,1.6374,1.6386,1.6396,1.64,1.6356,1.6357,1.6357,1.6357,0,0,1.5926,1.5989,1.5995,1.6017,1.6065,1.6092,1.6124,1.6166,1.6185,1.622,1.6249,1.6301,1.6307,1.6334,1.6354,1.6375,1.6394,1.6379,1.6381,1.6381,1.6436,1.6431,1.6435,1.6404,1.6405,1.6406,1.6433,0,1.5948,1.6005,1.6031,1.6078,1.6109,1.6132,1.6161,1.6194,1.6219,1.625,1.6278,1.6314,1.6319,1.6335,1.6357,1.6387,1.6406,1.6386,1.6433,1.6434,1.6421,1.644,1.6434,1.6458,1.6437,1.6438,1.6438,0,1.598,1.6014,1.6063,1.6107,1.6121,1.6146,1.6187,1.6216,1.6255,1.6271,1.63,1.632,1.6357,1.6356,1.6408,1.6393,1.6414,1.6432,1.6434,1.6439,1.6436,1.6446,1.6466,1.6469,1.6445,1.6444,1.6444,0,1.5977,1.6035,1.6072,1.609,1.6143,1.616,1.6183,1.6222,1.6245,1.6281,1.6297,1.6337,1.636,1.6391,1.6422,1.6418,1.6472,1.6472,1.6487,1.6486,1.6497,1.6496,1.6521,1.6511,1.6511,1.6511,1.6511,0,1.5998,1.6027,1.6071,1.6094,1.6128,1.6159,1.6192,1.6217,1.6251,1.628,1.6304,1.6331,1.637,1.6403,1.6427,1.6467,1.6477,1.6492,1.6498,1.649,1.6488,1.6504,1.6503,1.6512,1.6511,1.6511,1.6511,0,1.6,1.6031,1.6072,1.6119,1.6131,1.6154,1.6195,1.6219,1.6244,1.6281,1.6292,1.6332,1.6372,1.6406,1.6459,1.6475,1.6516,1.6524,1.6502,1.6506,1.6519,1.6517,1.6555,1.6561,1.6546,1.6547,1.6547,0,1.6011,1.6034,1.6083,1.6103,1.6126,1.6158,1.6182,1.6214,1.6238,1.6285,1.6303,1.6344,1.6378,1.6441,1.6477,1.6517,1.6526,1.6536,1.6532,1.6523,1.6526,1.6524,1.6527,1.6537,1.6537,1.6537,1.6537,0,1.6028,1.6042,1.6075,1.6113,1.614,1.6172,1.6205,1.6221,1.6259,1.6285,1.6325,1.6352,1.6405,1.6446,1.6491,1.6516,1.6533,1.6538,1.6543,1.6535,1.6521,1.6529,1.6503,1.6537,1.6537,1.6537,1.6537,1.6537,1.6035,1.6057,1.6094,1.613,1.6158,1.6188,1.6212,1.6241,1.6274,1.6319,1.6336,1.6377,1.6417,1.6478,1.6504,1.6538,1.6541,1.6549,1.6551,1.6552,1.6551,1.6516,1.6546,1.6546,1.6546,1.6546,1.6547,0,1.6053,1.6078,1.6111,1.6155,1.6184,1.6196,1.6233,1.6257,1.6292,1.6327,1.636,1.6406,1.6446,1.6485,1.6527,1.6546,1.6555,1.6557,1.6555,1.6561,1.6546,1.6537,1.6549,1.6549,1.6549,1.6549,1.6549,1.6549,1.6066,1.6103,1.6121,1.6173,1.6199,1.6238,1.6258,1.6286,1.6314,1.6364,1.6397,1.6421,1.6458,1.6503,1.6541,1.6552,1.6566,1.6565,1.6578,1.6563,1.6562,1.6562,1.6553,1.6568,1.6568,1.659,1.659,1.6591]},{"header":{"parameterUnit":"m.s-1","parameterCategory":1,"la1":30.2991,"la2":30.254,"lo1":-89.0895,"lo2":-89.0444,"dy":0.0017,"dx":0.0017,"nx":28,"ny":28,"refTime":"2024-07-17T03:00:00:Z","depth":0,"parameterNumber":3,"parameterNumberName":"V-component_of_WINDS"},"data":[0,0,0,0,0,0,0,0,0,0,0,0,0,0,0,0,0,0,0,0,0,0,0,0,0,0,0,0,0,0,0,0,0,0,0,0,0,0,0,0,0,0,0,0,0,0,0,0,0,0,0,0,0,0,0,0,0,0,3.2626,3.2626,0,3.2607,3.2607,3.2606,3.2595,3.2595,3.2595,3.2594,3.2574,3.2573,3.2573,0,0,0,0,0,0,0,0,0,0,0,0,0,3.265,3.2649,3.2626,3.2625,3.2625,3.2607,3.2606,3.2606,3.2595,3.2595,3.2595,3.2594,3.2574,3.2573,3.2573,0,0,0,0,0,0,0,0,0,0,0,0,0,3.2636,3.2649,3.2626,3.2617,3.2616,3.2607,3.2606,3.2606,3.2595,3.2595,3.2594,3.2594,3.2574,3.2573,3.2572,3.2569,0,0,3.257,3.257,0,0,0,0,0,0,0,0,3.2637,3.2635,3.2619,3.2618,3.2617,3.2603,3.2607,3.2594,3.2595,3.2603,3.2594,3.2594,3.2583,3.2582,3.2578,3.2569,3.2568,3.257,3.257,3.2569,3.2569,0,0,0,0,0,0,0,3.2637,3.2636,3.2618,3.2619,3.2617,3.2614,3.2612,3.2605,3.2594,3.2602,3.2601,3.2599,3.2583,3.2579,3.2578,3.2567,3.257,3.2569,3.2569,3.2569,3.2552,3.2552,0,0,0,0,0,0,3.264,3.2636,3.2619,3.2618,3.2627,3.2613,3.2611,3.2607,3.2594,3.2592,3.2599,3.2599,3.258,3.2579,3.2577,3.2571,3.2569,3.2569,3.2568,3.2552,3.2552,3.2552,0,0,0,0,0,0,3.2641,3.2639,3.262,3.2627,3.2624,3.2613,3.2609,3.2607,3.2604,3.2592,3.259,3.2598,3.258,3.2578,3.2571,3.2571,3.2568,3.2568,3.2552,3.2552,3.2552,3.2561,0,0,0,0,0,0,3.2641,3.2639,3.2638,3.2627,3.2624,3.2615,3.2609,3.2607,3.2602,3.2602,3.259,3.2588,3.258,3.2572,3.257,3.2569,3.2567,3.2552,3.2552,3.2552,3.2561,3.2561,3.2562,0,0,0,0,0,3.2642,3.2642,3.2638,3.2636,3.2623,3.2615,3.2613,3.2605,3.2603,3.2601,3.2593,3.2588,3.2571,3.2572,3.2569,3.2568,3.2552,3.2552,3.2552,3.256,3.2561,3.2562,0,0,0,0,0,0,3.2653,3.264,3.2636,3.2632,3.2625,3.2613,3.2611,3.2606,3.2599,3.2598,3.2588,3.2585,3.2579,3.2573,3.2574,3.2564,3.2561,3.256,3.2568,3.2568,3.2569,3.257,3.2566,0,0,0,0,0,3.2655,3.265,3.2639,3.2636,3.2633,3.2623,3.2619,3.2613,3.2605,3.2601,3.2593,3.2585,3.2577,3.2572,3.2565,3.256,3.2556,3.2557,3.2558,3.2559,3.2558,3.2553,3.2553,3.2552,3.2552,3.2552,0,0,3.2659,3.2651,3.2649,3.2638,3.2632,3.2626,3.262,3.2615,3.261,3.26,3.2593,3.2587,3.2576,3.257,3.2566,3.2564,3.2558,3.2559,3.2559,3.2558,3.2553,3.2553,3.2553,3.2552,3.2552,3.2552,0,0,3.2664,3.2658,3.2654,3.2648,3.2638,3.2631,3.263,3.2619,3.2614,3.2607,3.2599,3.2593,3.258,3.2573,3.2568,3.2567,3.2561,3.2565,3.2568,3.2563,3.2563,3.2563,3.2562,3.2562,3.2565,3.2565,3.2565,0,3.267,3.2661,3.2653,3.2648,3.2643,3.2634,3.2629,3.2623,3.2611,3.2607,3.2606,3.2589,3.2582,3.2572,3.2572,3.2568,3.2566,3.2566,3.2564,3.2564,3.2564,3.2562,3.2562,3.2565,3.2565,3.2565,3.2565,0,3.2669,3.2663,3.2661,3.265,3.2645,3.264,3.263,3.2625,3.2619,3.2612,3.2604,3.2594,3.2584,3.2582,3.2576,3.2571,3.257,3.2566,3.2563,3.2565,3.2563,3.2562,3.2566,3.2566,3.2566,3.2565,0,0,3.268,3.2663,3.2663,3.2657,3.2645,3.264,3.2634,3.2624,3.262,3.2612,3.2606,3.2595,3.2591,3.2585,3.2578,3.2574,3.2572,3.257,3.257,3.257,3.2564,3.2567,3.2567,3.2568,3.2568,3.2568,3.2565,0,3.2682,3.2672,3.2663,3.2656,3.2649,3.264,3.2635,3.2626,3.2619,3.2612,3.2603,3.2595,3.2591,3.2587,3.2583,3.2574,3.2571,3.2574,3.2562,3.2561,3.2564,3.2566,3.2569,3.2566,3.2564,3.2564,3.2564,0,3.2683,3.2675,3.2667,3.2654,3.2651,3.2647,3.2636,3.263,3.2619,3.2614,3.2607,3.2599,3.2591,3.2589,3.2576,3.2579,3.2573,3.2567,3.2567,3.2565,3.2563,3.2563,3.2565,3.2565,3.2563,3.2563,3.2564,0,3.2691,3.2678,3.2671,3.2667,3.2652,3.2649,3.2642,3.2632,3.2626,3.2616,3.2612,3.2602,3.2596,3.2587,3.2577,3.2576,3.2565,3.2562,3.2559,3.256,3.2558,3.2558,3.2558,3.2555,3.2555,3.2555,3.2555,0,3.2693,3.2689,3.2674,3.267,3.2664,3.2654,3.2647,3.264,3.263,3.2623,3.2615,3.2608,3.2595,3.2586,3.2578,3.2568,3.2566,3.2561,3.2558,3.2561,3.2562,3.2557,3.2557,3.2555,3.2555,3.2555,3.2555,0,3.2701,3.2692,3.2683,3.267,3.2666,3.2662,3.265,3.2645,3.2637,3.2628,3.2625,3.2612,3.2602,3.259,3.2576,3.257,3.256,3.2558,3.2564,3.2563,3.2561,3.2561,3.2557,3.2556,3.2555,3.2555,3.2555,0,3.2703,3.2699,3.2685,3.268,3.2674,3.2666,3.266,3.2649,3.2643,3.263,3.2626,3.2615,3.2605,3.2588,3.2577,3.2565,3.2562,3.2561,3.256,3.2562,3.256,3.256,3.2559,3.2562,3.2562,3.2562,3.2562,0,3.2708,3.2703,3.2695,3.2685,3.2678,3.2669,3.266,3.2656,3.2643,3.2637,3.2626,3.2618,3.2603,3.2592,3.2578,3.257,3.2563,3.2562,3.2561,3.2563,3.2567,3.2564,3.2565,3.2562,3.2562,3.2562,3.2562,3.2562,3.2712,3.2708,3.2697,3.2688,3.268,3.2671,3.2665,3.2656,3.2647,3.2635,3.2628,3.2617,3.2605,3.2586,3.2578,3.2568,3.2566,3.2565,3.2564,3.2564,3.2564,3.2569,3.2566,3.2566,3.2566,3.2566,3.2566,0,3.2715,3.2708,3.2699,3.2687,3.2679,3.2674,3.2663,3.2657,3.2648,3.2637,3.2628,3.2614,3.2603,3.259,3.2577,3.2571,3.2568,3.2568,3.2568,3.2566,3.2567,3.2569,3.2571,3.2571,3.2571,3.2571,3.2571,3.2571,3.2716,3.2708,3.2702,3.2689,3.2681,3.267,3.2664,3.2656,3.2647,3.2633,3.2623,3.2615,3.2603,3.2589,3.2577,3.2574,3.2569,3.257,3.2566,3.2567,3.2566,3.2566,3.2568,3.257,3.257,3.2566,3.2566,3.2565]}]]